Location: North Evanston
(42.0634°N, 87.6976°W)
Time: 21:18:44
(UTC+00:00)

Transit 2A - Pass Details

Date: 13 May 2026
Orbit: 595 x 948 km, 66.7° (Epoch: 9 June)

Event Time Altitude Azimuth Distance (km) Brightness Sun altitude
Rises 08:36:44 0° 307° (NW) 3,085 9.1 -18.0°
Enters shadow 08:39:35 - 287° (WNW) 2,332 8.3 -17.6°
Reaches altitude 10° 08:41:30 10° 266° (W) 2,061 - -17.4°
Maximum altitude 08:42:04 10° 259° (WSW) 2,036 - -17.3°
Drops below altitude 10° 08:42:38 10° 251° (WSW) 2,039 - -17.2°
Sets 08:47:08 0° 208° (SSW) 2,869 - -16.6°
